Preview of NWS' New Version of Forecast
This preview is not operational and should not be used for support decisions.

Regional Weather Roundup (RWR)

Issued by National Weather Service (NWS)

                            
000
ASCA42 TJSJ 171510
RWRPR 
PUERTO RICO/U.S. VIRGIN ISLANDS HOURLY WEATHER ROUNDUP
NATIONAL WEATHER SERVICE SAN JUAN PR
1100 AM AST SUN FEB 17 2019

PRZ001>002-007>008-010-171600-
PUERTO RICO
  
CITY           SKY/WX    TMP DP  RH WIND       PRES   REMARKS
SAN JUAN LMM   MOSUNNY   84  68  58 VRB5      30.12F                  
AGUADILLA      MOSUNNY   81  72  74 N7        30.13S                  
CEIBA            N/A    N/A N/A N/A MISG      30.14                   
$$

VIZ001>002-171600-
U.S. VIRGIN ISLANDS
  
CITY           SKY/WX    TMP DP  RH WIND       PRES   REMARKS
CHARLOTTE AMA  SUNNY     82  73  74 SE14      30.13R                  
CHRISTIANSTED  MOSUNNY   84  73  70 E13       30.14R HX  91           
$$

HOURLY WEATHER ROUNDUP FOR THE NEWS MEDIA
  
CITY           SKY/WX    TMP DP  RH WIND       PRES   REMARKS
ORLANDO        FAIR      75  64  68 S8        30.01S                  
NEW YORK       FAIR      32  14  47 NE12      30.15F WCI  23          
NEWARK         FAIR      31  14  49 NE13      30.14F WCI  21          
CHICAGO        SNOW      24  22  91 E12       29.88F VSB 1/2 WCI  13  
HARTFORD       FAIR      31   9  39 VRB6      30.14R WCI  25          
DALLAS         CLOUDY    40  34  79 N18G24    29.94R WCI  31          
PHILADELPHIA   PTSUNNY   32  15  49 E8        30.16F WCI  25          
LOS ANGELES    PTCLDY    49  37  63 NW6       30.08R                  
WASHINGTON DC  PTSUNNY   34  20  56 E8        30.07F WCI  27